[[{"header":{"parameterUnit":"m.s-1","parameterCategory":1,"la1":30.2992,"la2":30.254,"lo1":-89.0895,"lo2":-89.0443,"dy":0.0025,"dx":0.0025,"nx":19,"ny":19,"refTime":"2026-05-20T09:00:00:Z","depth":0,"parameterNumber":2,"parameterNumberName":"U-component_of_WINDS"},"data":[0,0,0,-1.4768,-1.4771,-1.4894,-1.4894,-1.5046,-1.5047,0,0,0,0,0,0,0,0,0,0,0,-1.4728,-1.4729,-1.4768,-1.4771,-1.4894,-1.4894,-1.5046,-1.5047,0,0,0,0,0,0,0,0,0,0,0,-1.4727,-1.4729,-1.473,-1.4771,-1.4894,-1.4894,-1.5045,-1.4955,0,0,0,0,0,0,0,0,0,0,-1.4836,-1.4795,-1.4728,-1.473,-1.4772,-1.4893,-1.4894,-1.495,-1.496,-1.4987,0,-1.5011,0,-1.5031,-1.5057,-1.5057,0,0,0,-1.4774,-1.4787,-1.4823,-1.473,-1.4773,-1.4893,-1.4839,-1.4956,-1.4967,-1.5001,-1.5013,-1.5019,-1.5034,-1.5058,-1.5059,-1.5207,-1.5207,0,0,-1.4767,-1.4748,-1.4816,-1.4831,-1.4811,-1.4835,-1.4843,-1.4963,-1.4975,-1.5013,-1.5022,-1.5036,-1.5059,-1.506,-1.5206,-1.5207,0,0,0,-1.4745,-1.4743,-1.4777,-1.4824,-1.4847,-1.4839,-1.4848,-1.497,-1.4982,-1.5024,-1.5038,-1.506,-1.5061,-1.5206,-1.5207,-1.5216,0,0,0,-1.4741,-1.4731,-1.4774,-1.4763,-1.4844,-1.491,-1.4851,-1.4974,-1.4988,-1.5037,-1.506,-1.5063,-1.5205,-1.5206,-1.5215,-1.5224,0,0,0,-1.4721,-1.4728,-1.4745,-1.4762,-1.4814,-1.4908,-1.4928,-1.4977,-1.4996,-1.5057,-1.5063,-1.5205,-1.5206,-1.5213,-1.5222,-1.5258,0,0,0,-1.4694,-1.4751,-1.4745,-1.4814,-1.4813,-1.4913,-1.4927,-1.5003,-1.5056,-1.506,-1.5205,-1.5207,-1.5213,-1.5221,-1.5256,-1.5285,-1.5295,0,0,-1.4756,-1.4758,-1.4801,-1.4798,-1.4895,-1.4896,-1.4994,-1.5061,-1.5084,-1.5165,-1.5168,-1.5215,-1.5222,-1.5258,-1.5358,-1.5366,0,0,0,-1.4814,-1.4845,-1.4874,-1.4924,-1.4977,-1.5023,-1.5076,-1.5101,-1.5171,-1.5121,-1.5239,-1.5243,-1.5265,-1.528,-1.5286,-1.5307,-1.5212,-1.5212,-1.5212,-1.4875,-1.4901,-1.4974,-1.5015,-1.5064,-1.5119,-1.5161,-1.5204,-1.5216,-1.5244,-1.5268,-1.5326,-1.5342,-1.5347,-1.5368,-1.5285,-1.5285,-1.5285,-1.5285,-1.4968,-1.5016,-1.5031,-1.5107,-1.5135,-1.5199,-1.5255,-1.5262,-1.5326,-1.5309,-1.533,-1.531,-1.5355,-1.5375,-1.5286,-1.5286,-1.5286,-1.5286,-1.5286,-1.5011,-1.5039,-1.5068,-1.5144,-1.5199,-1.5239,-1.53,-1.5324,-1.5346,-1.5366,-1.5395,-1.5395,-1.5398,-1.5378,-1.5378,-1.5378,-1.5379,-1.5379,-1.5379,-1.5044,-1.5077,-1.5126,-1.5187,-1.5222,-1.5272,-1.5328,-1.5364,-1.541,-1.5422,-1.5422,-1.5432,-1.5354,-1.5334,-1.5382,-1.5382,-1.5381,-1.5381,-1.5381,-1.513,-1.5114,-1.5189,-1.5225,-1.5298,-1.5352,-1.5381,-1.5452,-1.5485,-1.5515,-1.5521,-1.5459,-1.5463,-1.5458,-1.5442,-1.5514,-1.5514,-1.5514,-1.5514,-1.5166,-1.517,-1.5252,-1.5308,-1.5365,-1.5399,-1.5483,-1.5528,-1.5572,-1.5594,-1.5587,-1.5567,-1.5561,-1.5569,-1.5561,-1.5546,-1.5644,-1.5644,-1.5644,-1.522,-1.5231,-1.5298,-1.5341,-1.54,-1.5451,-1.5531,-1.5595,-1.5641,-1.565,-1.5612,-1.5606,-1.5575,-1.5563,-1.557,-1.5558,-1.5531,0,0]},{"header":{"parameterUnit":"m.s-1","parameterCategory":1,"la1":30.2992,"la2":30.254,"lo1":-89.0895,"lo2":-89.0443,"dy":0.0025,"dx":0.0025,"nx":19,"ny":19,"refTime":"2026-05-20T09:00:00:Z","depth":0,"parameterNumber":3,"parameterNumberName":"V-component_of_WINDS"},"data":[0,0,0,1.3657,1.3658,1.3685,1.3685,1.3721,1.3721,0,0,0,0,0,0,0,0,0,0,0,1.3649,1.365,1.3657,1.3658,1.3685,1.3685,1.372,1.3721,0,0,0,0,0,0,0,0,0,0,0,1.3649,1.3649,1.365,1.3658,1.3685,1.3685,1.372,1.3699,0,0,0,0,0,0,0,0,0,0,1.3672,1.3666,1.3649,1.365,1.3658,1.3685,1.3685,1.3698,1.3701,1.3708,0,1.3716,0,1.3719,1.3723,1.3723,0,0,0,1.3657,1.3664,1.3671,1.365,1.3658,1.3685,1.3673,1.37,1.3702,1.3711,1.3716,1.3717,1.372,1.3724,1.3724,1.3771,1.3771,0,0,1.3655,1.3654,1.367,1.3673,1.367,1.3672,1.3673,1.3701,1.3706,1.3716,1.3718,1.372,1.3724,1.3724,1.3771,1.3771,0,0,0,1.3651,1.3653,1.366,1.3672,1.3677,1.3673,1.3675,1.3705,1.3707,1.3719,1.372,1.3724,1.3724,1.3771,1.3771,1.3783,0,0,0,1.365,1.3651,1.3659,1.3659,1.3676,1.3691,1.3678,1.3705,1.3708,1.372,1.3724,1.3725,1.377,1.3771,1.3782,1.3788,0,0,0,1.3647,1.3651,1.3655,1.3659,1.3671,1.3691,1.3695,1.3706,1.371,1.3723,1.3725,1.377,1.3771,1.3781,1.3787,1.38,0,0,0,1.3643,1.3664,1.3655,1.368,1.367,1.3698,1.3695,1.3715,1.3729,1.3724,1.377,1.3771,1.3781,1.3786,1.3799,1.3811,1.3816,0,0,1.3669,1.3668,1.3682,1.3675,1.3704,1.3694,1.3725,1.3738,1.374,1.376,1.3761,1.3782,1.3787,1.38,1.3845,1.3849,0,0,0,1.369,1.37,1.3708,1.3722,1.3733,1.3742,1.3751,1.3755,1.3773,1.375,1.3791,1.3794,1.3801,1.3807,1.381,1.3817,1.3774,1.3774,1.3773,1.3725,1.3727,1.3751,1.3757,1.377,1.3778,1.3789,1.3796,1.3794,1.3804,1.3809,1.3837,1.3843,1.3846,1.3853,1.3816,1.3816,1.3816,1.3817,1.3763,1.3778,1.3775,1.3798,1.38,1.3818,1.3828,1.3826,1.3843,1.3832,1.3839,1.3827,1.385,1.3856,1.3817,1.3817,1.3817,1.3817,1.3817,1.3785,1.3793,1.3799,1.3819,1.3834,1.3838,1.3855,1.3856,1.3857,1.3864,1.3871,1.387,1.387,1.3868,1.3868,1.3868,1.3868,1.3868,1.3868,1.3806,1.3813,1.3827,1.3841,1.385,1.3862,1.3872,1.388,1.389,1.3889,1.3889,1.3885,1.3852,1.3844,1.3869,1.3869,1.3869,1.3869,1.3869,1.3842,1.3834,1.3857,1.3866,1.3883,1.3897,1.3899,1.3916,1.3924,1.3932,1.3927,1.3903,1.3901,1.3898,1.3891,1.3927,1.3927,1.3927,1.3927,1.3861,1.386,1.3884,1.3898,1.3912,1.3916,1.3941,1.3949,1.3956,1.396,1.3955,1.3946,1.3943,1.3943,1.3939,1.3932,1.3978,1.3978,1.3978,1.3883,1.3884,1.3905,1.3913,1.3926,1.3937,1.3961,1.3977,1.3983,1.3981,1.3964,1.3961,1.3946,1.3942,1.3938,1.3932,1.392,0,0]}]]